Flag for India Weather past 2 weeks in Allahabad, Uttar Pradesh, India

Now
86 °F

Haze.


Feels Like: 99 °F
Forecast: 81 / 100 °F
Wind: 2 mph from East

Location: Varanasi / Babatpur

Current Time: Aug 29, 2014 at 10:41:14 PM

Latest Report: Aug 29, 2014 at 10:00 PM


Visibility: 2 mi

Pressure: 29.62 "Hg

Humidity: 79%

Dew point: 79 °F

Location of AllahabadLocation

Historic Weather in Allahabad — Graph

°F

Allahabad temperature yesterday

Maximum temperature yesterday: 93 °F (at 3:00 PM)
Minimum temperature yesterday: 82 °F (at 12:00 AM)
Average temperature yesterday: 88 °F

Past Weeks' High & Low Weather Summary

 TemperatureHumidityPressure
High100 °F (Aug 29, 2:00 PM)94% (Aug 15, 11:00 PM)29.77 "Hg (Aug 15, 11:00 PM)
Low79 °F (Aug 20, 10:00 PM)45% (Aug 29, 2:00 PM)29.53 "Hg (Aug 26, 5:00 PM)
Average88 °F75%29.64 "Hg
* Reported Aug 14 9:00 PM — Aug 29 9:00 PM, Allahabad, Weather by CustomWeather, © 2014

Note: Actual official high and low records may vary slightly from our data, if they occured in-between our weather recording intervals... More about our weather records

Advertising

Allahabad weather history for previous 24 hours

 ConditionsComfort  
Time TempWeatherWind HumidityBarometerVisibility
9:00 PM
Aug 29
88 °FHaze.2 mph70%29.62 "Hg3 mi
8:00 PM88 °FHaze.3 mph70%29.59 "Hg3 mi
7:00 PM88 °FHaze.3 mph75%29.59 "Hg3 mi
6:00 PM91 °FHaze.5 mph63%29.59 "Hg3 mi
5:00 PM93 °FHaze.7 mph56%29.56 "Hg3 mi
4:00 PM95 °FScattered clouds.7 mph50%29.56 "Hg3 mi
3:00 PM99 °FScattered clouds.9 mph47%29.56 "Hg3 mi
2:00 PM100 °FPartly sunny.8 mph45%29.59 "Hg3 mi
1:00 PM97 °FScattered clouds.9 mph53%29.62 "Hg3 mi
12:00 PM95 °FScattered clouds.8 mph60%29.62 "Hg3 mi
11:00 AM91 °FScattered clouds.8 mph71%29.65 "Hg3 mi
10:00 AM90 °FScattered clouds.9 mph75%29.65 "Hg3 mi
9:00 AM88 °FScattered clouds.9 mph79%29.65 "Hg3 mi
8:00 AM84 °FScattered clouds.9 mph84%29.65 "Hg2 mi
7:00 AM82 °FScattered clouds.7 mph89%29.65 "Hg2 mi
6:00 AM81 °FPassing clouds.5 mph89%29.65 "Hg2 mi
5:00 AM81 °FPassing clouds.7 mph94%29.65 "Hg3 mi
4:00 AM82 °FHaze.No wind89%29.62 "Hg3 mi
12:00 AM84 °FHaze.No wind84%29.65 "Hg3 mi
11:00 PM
Aug 28
86 °FPassing clouds.No wind79%29.65 "Hg3 mi
10:00 PM86 °FPassing clouds.6 mph79%29.65 "Hg3 mi
Weather by CustomWeather, © 2014

See weather overviewHow to use our weather pages